CW0454 Weather Reports


time (UTC)temp
C
wind
direction
speed
KPH
gust
KPH
rain 1hr
cm
rain 24hr
cm
rain mn
cm
humidity
%
barometer
mb
20260504214400 23 127 9.7 24.1 0.00 0.00 0.00 44 1009.0
20260504213400 23 119 12.9 27.4 0.00 0.00 0.00 44 1009.0
20260504212421 23 103 8.0 22.5 0.00 0.00 0.00 44 1009.1
20260504211400 23 102 8.0 19.3 0.00 0.00 0.00 42 1009.1
20260504210400 23 66 3.2 19.3 0.00 0.00 0.00 43 1009.0
20260504205400 23 87 6.4 17.7 0.00 0.00 0.00 43 1009.2
20260504204400 23 130 6.4 19.3 0.00 0.00 0.00 43 1009.2
20260504203400 23 107 11.3 22.5 0.00 0.00 0.00 42 1009.4
20260504201400 24 71 6.4 19.3 0.00 0.00 0.00 42 1009.2
20260504200400 24 123 4.8 20.9 0.00 0.00 0.00 42 1009.4
20260504195401 24 106 6.4 17.7 0.00 0.00 0.00 42 1009.5
20260504194400 24 113 4.8 17.7 0.00 0.00 0.00 42 1009.8
20260504193401 23 76 4.8 22.5 0.00 0.00 0.00 42 1009.9
20260504192401 23 98 3.2 20.9 0.00 0.00 0.00 43 1010.2
20260504191400 23 55 8.0 19.3 0.00 0.00 0.00 42 1010.2
20260504190401 23 88 6.4 24.1 0.00 0.00 0.00 43 1010.4
20260504185401 23 75 6.4 19.3 0.00 0.00 0.00 43 1010.5
20260504184401 23 77 8.0 19.3 0.00 0.00 0.00 42 1010.7
20260504183401 23 127 6.4 25.7 0.00 0.00 0.00 42 1010.9
20260504182400 23 127 11.3 20.9 0.00 0.00 0.00 42 1010.9
20260504181401 23 38 3.2 17.7 0.00 0.00 0.00 45 1011.1
20260504180400 23 114 4.8 17.7 0.00 0.00 0.00 42 1011.1
20260504175401 23 144 8.0 19.3 0.00 0.00 0.00 41 1011.3
20260504174400 23 57 4.8 14.5 0.00 0.00 0.00 41 1011.5
20260504173401 23 139 3.2 17.7 0.00 0.00 0.00 41 1011.7
20260504172401 23 148 4.8 16.1 0.00 0.00 0.00 39 1011.7
20260504171400 23 101 4.8 11.3 0.00 0.00 0.00 39 1011.8
20260504170401 22 250 8.0 14.5 0.00 0.00 0.00 37 1011.8
20260504160402 21 107 3.2 14.5 0.00 0.00 0.00 41 1012.7
20260504150401 18 237 3.2 11.3 0.00 0.00 0.00 48 1013.3
20260504140402 16 138 1.6 12.9 0.00 0.00 0.00 54 1013.5
20260504130402 14 137 1.6 11.3 0.00 0.00 0.00 59 1013.8
20260504110402 10 130 3.2 9.7 0.00 0.00 0.00 72 1014.4
20260504100402 8 118 3.2 9.7 0.00 0.00 0.00 79 1014.4
20260504081402 9 128 0.0 3.2 0.00 0.00 0.00 75 1014.7
20260504080403 9 128 0.0 6.4 0.00 0.00 0.00 74 1014.8
20260504050359 7 185 0.0 6.4 0.00 0.00 0.00 74 1014.8
20260504045420 7 116 1.6 11.3 0.00 0.00 0.00 75 1014.9
20260504044359 7 122 3.2 9.7 0.00 0.00 0.00 76 1015.1
20260504043359 7 138 0.0 6.4 0.00 0.00 0.00 76 1015.0
20260504042359 7 163 1.6 6.4 0.00 0.00 0.00 77 1015.0
20260504041420 7 124 0.0 4.8 0.00 0.00 0.00 78 1015.0
20260504040358 7 125 0.0 3.2 0.00 0.00 0.00 78 1014.9
20260504035359 7 125 0.0 4.8 0.00 0.00 0.00 77 1014.9
20260504034359 7 126 0.0 4.8 0.00 0.00 0.00 76 1014.7
20260504033420 7 165 0.0 6.4 0.00 0.00 0.00 76 1014.6
20260504032359 7 212 1.6 3.2 0.00 0.00 0.00 75 1014.4
20260504031359 7 213 0.0 1.6 0.00 0.00 0.00 75 1014.4
20260504030420 7 212 0.0 3.2 0.00 0.00 0.00 74 1014.4
20260504025359 7 212 0.0 1.6 0.00 0.00 0.00 75 1014.4
20260504024359 7 212 1.6 3.2 0.00 0.00 0.00 73 1014.4
20260504023359 7 212 0.0 1.6 0.00 0.00 0.00 72 1014.3
20260504022359 7 213 0.0 3.2 0.00 0.00 0.00 72 1014.4
20260504021359 7 212 0.0 3.2 0.00 0.00 0.00 70 1014.2
20260504020421 8 212 0.0 1.6 0.00 0.00 0.00 70 1014.1
20260504015400 8 212 1.6 3.2 0.00 0.00 0.00 69 1014.1
20260504014359 8 212 0.0 3.2 0.00 0.00 0.00 67 1014.1
20260504013400 8 212 1.6 3.2 0.00 0.00 0.00 66 1014.1
20260504012359 8 213 0.0 1.6 0.00 0.00 0.00 66 1014.1
20260504011420 9 212 0.0 3.2 0.00 0.00 0.00 62 1014.0
20260504010400 10 212 0.0 3.2 0.00 0.00 0.00 62 1014.0
20260504005359 10 212 0.0 3.2 0.00 0.00 0.00 60 1014.0
20260504004421 10 212 1.6 1.6 0.00 0.00 0.00 56 1013.9
20260504003359 11 212 1.6 3.2 0.00 0.00 0.00 53 1013.7
20260504001359 12 213 0.0 1.6 0.00 0.00 0.00 48 1013.5
20260504000401 13 213 0.0 0.0 0.00 0.00 0.00 46 1013.4
20260503235420 13 213 0.0 0.0 0.00 0.00 0.00 43 1013.2
20260503234421 14 213 0.0 6.4 0.00 0.00 0.00 42 1013.1
20260503233400 15 212 1.6 6.4 0.00 0.00 0.00 40 1013.1
20260503232400 15 250 1.6 6.4 0.00 0.00 0.00 39 1013.1
20260503231400 16 256 4.8 17.7 0.00 0.00 0.00 36 1013.0
20260503230400 16 273 3.2 16.1 0.00 0.00 0.00 36 1013.0
20260503225359 16 245 4.8 24.1 0.00 0.00 0.00 35 1013.0
20260503224400 16 225 6.4 14.5 0.00 0.00 0.00 34 1013.1
20260503223400 16 250 8.0 19.3 0.00 0.00 0.00 35 1013.1
20260503222400 16 313 3.2 19.3 0.00 0.00 0.00 35 1013.0
20260503221400 16 260 6.4 17.7 0.00 0.00 0.00 34 1013.0
20260503220442 17 285 6.4 22.5 0.00 0.00 0.00 34 1013.1
20260503215400 17 263 11.3 24.1 0.00 0.00 0.00 32 1013.1